C/2016 M1 ( PanSTARRS )

Japanese version
Home page
Updated on October 9, 2017

---------------------------------------------------------------------

* Profile

Discovery Date June 22, 2016
Magnitude 19.7 mag
Discoverer Pan-STARRS 1 telescope (Haleakala)

* Pictures

* Orbital Elements

Epoch 2018 Aug. 30.0 TT = JDT 2458360.5
T 2018 Aug. 10.17942 TT                                 MPCW
q   2.2104995            (2000.0)            P               Q
z  +0.0004154      Peri.  209.82641     +0.02467890     -0.03424824
 +/-0.0000017      Node    92.20322     -0.59785285     +0.80049391
e   0.9990817      Incl.   90.99985     -0.80122589     -0.59836157
From 1103 observations 2016 June 22-2017 July 6, mean residual 0".4.

* Finding Charts

* Magnitudes Graph

        m1 = 6.5 + 5 log d + 8.5 log r

---------------------------------------------------------------------

The orbital elements are published on M.P.E.C. 2017-N58.
The charts are made with StellaNavigator Ver.10 (AstroArts).
The magnitudes graphs are made with Comet for Windows.

---------------------------------------------------------------------

Copyright(C) Seiichi Yoshida (comet@aerith.net). All rights reserved.